CW7595 Weather Reports


Display with metric or nautical units.
time (UTC)temp
F
wind
direction
speed
MPH
gust
MPH
rain 1hr
in
rain 24hr
in
rain mn
in
humidity
%
barometer
mb
20260510013044 48 197 0.0 1.0 0.00 0.00 0.00 53 1012.8
20260510011556 48 186 0.0 0.0 0.00 0.00 0.00 51 1012.7
20260510010050 49 188 0.0 1.0 0.00 0.00 0.00 50 1012.4
20260510004537 50 180 0.0 6.0 0.00 0.00 0.00 47 1012.2
20260510003036 51 186 0.0 3.0 0.00 0.00 0.00 43 1011.9
20260510001535 52 189 0.0 1.0 0.00 0.00 0.00 42 1011.8
20260510000034 53 200 0.0 6.0 0.00 0.00 0.00 40 1011.5
20260509234536 54 171 0.0 14.0 0.00 0.00 0.00 40 1011.3
20260509233033 55 182 0.0 7.0 0.00 0.00 0.00 37 1010.9
20260509231533 56 181 0.0 0.0 0.00 0.00 0.00 36 1010.9
20260509230032 56 170 0.0 0.0 0.00 0.00 0.00 33 1010.7
20260509224532 57 171 0.0 6.0 0.00 0.00 0.00 32 1010.6
20260509223032 58 183 0.0 8.0 0.00 0.00 0.00 30 1010.5
20260509221536 58 168 0.0 7.0 0.00 0.00 0.00 30 1010.4
20260509220030 58 178 0.0 1.0 0.00 0.02 0.00 29 1010.4
20260509214530 58 186 0.0 10.0 0.00 0.02 0.00 29 1010.5
20260509213028 58 148 0.0 12.0 0.00 0.02 0.00 31 1010.4
20260509211549 58 193 0.0 9.0 0.00 0.02 0.00 32 1010.5
20260509210028 58 203 0.0 10.0 0.00 0.02 0.00 31 1010.5
20260509204527 58 179 2.0 12.0 0.00 0.02 0.00 29 1010.4
20260509203038 58 154 0.0 9.0 0.00 0.02 0.00 30 1010.5
20260509201526 61 182 1.0 11.0 0.00 0.02 0.00 30 1010.5
20260509200026 59 163 0.0 7.0 0.00 0.02 0.00 31 1010.5
20260509194525 59 186 0.0 6.0 0.00 0.02 0.00 31 1010.6
20260509193025 58 171 1.0 11.0 0.00 0.02 0.00 30 1010.5
20260509191524 60 169 2.0 9.0 0.00 0.02 0.00 27 1010.5
20260509190024 60 191 3.0 11.0 0.00 0.03 0.00 30 1010.6
20260509184522 59 191 3.0 11.0 0.00 0.03 0.00 28 1010.8
20260509183022 59 186 4.0 13.0 0.00 0.03 0.00 33 1010.7
20260509181519 58 155 5.0 12.0 0.00 0.03 0.00 32 1010.9
20260509180018 59 175 3.0 14.0 0.00 0.03 0.00 31 1010.8
20260509174516 57 192 1.0 11.0 0.00 0.03 0.00 37 1011.0
20260509173015 57 181 0.0 8.0 0.00 0.03 0.00 38 1011.1
20260509171513 56 288 2.0 9.0 0.00 0.03 0.00 36 1011.2
20260509170013 56 170 0.0 10.0 0.00 0.03 0.00 41 1011.1
20260509164512 55 202 3.0 11.0 0.00 0.03 0.00 38 1011.1
20260509163010 56 167 0.0 1.0 0.00 0.03 0.00 36 1011.1
20260509161512 55 247 0.0 7.0 0.00 0.03 0.00 38 1011.2
20260509160012 54 196 2.0 8.0 0.00 0.03 0.00 37 1011.3
20260509154509 56 171 1.0 8.0 0.00 0.03 0.00 35 1011.3
20260509153017 54 197 0.0 6.0 0.00 0.03 0.00 38 1011.4
20260509151508 55 194 0.0 7.0 0.00 0.03 0.00 38 1011.5
20260509150007 56 167 2.0 9.0 0.00 0.03 0.00 37 1011.4
20260509144503 54 200 0.0 8.0 0.00 0.03 0.00 40 1011.5
20260509143002 53 153 0.0 1.0 0.00 0.03 0.00 45 1011.7
20260509141502 54 163 0.0 2.0 0.00 0.03 0.00 47 1011.8
20260509140119 53 189 0.0 0.0 0.00 0.03 0.00 48 1011.8
20260509134600 52 224 0.0 0.0 0.00 0.03 0.00 51 1011.8
20260509133103 51 194 0.0 0.0 0.00 0.03 0.00 54 1011.7
20260509131555 50 183 0.0 0.0 0.00 0.03 0.00 55 1011.7
20260509130049 49 234 0.0 0.0 0.00 0.03 0.00 60 1011.7
20260509124546 47 196 0.0 0.0 0.00 0.03 0.00 64 1011.6
20260509123041 46 161 0.0 0.0 0.00 0.03 0.00 64 1011.6
20260509121540 45 171 0.0 0.0 0.00 0.03 0.00 66 1011.5
20260509120036 44 189 0.0 0.0 0.00 0.03 0.00 67 1011.4
20260509114534 42 175 0.0 0.0 0.00 0.03 0.00 70 1011.4
20260509113027 41 176 0.0 0.0 0.00 0.03 0.00 73 1011.3
20260509111525 40 176 0.0 0.0 0.00 0.03 0.00 74 1011.3
20260509110024 39 174 0.0 0.0 0.00 0.04 0.00 75 1011.2
20260509104521 39 174 0.0 0.0 0.00 0.04 0.00 77 1011.0
20260509103019 37 174 0.0 0.0 0.00 0.04 0.00 80 1010.8
20260509101517 36 174 0.0 0.0 0.00 0.04 0.00 81 1010.6
20260509100016 36 174 0.0 0.0 0.00 0.04 0.00 80 1010.4
20260509094515 36 174 0.0 0.0 0.00 0.04 0.00 80 1010.3
20260509093013 36 174 0.0 0.0 0.00 0.04 0.00 80 1010.1
20260509091520 36 174 0.0 0.0 0.00 0.04 0.00 80 1010.0
20260509090009 36 174 0.0 0.0 0.00 0.04 0.00 80 1009.8
20260509084517 36 174 0.0 0.0 0.00 0.04 0.00 80 1009.7
20260509083006 36 174 0.0 0.0 0.00 0.04 0.00 80 1009.6
20260509081505 37 174 0.0 0.0 0.00 0.04 0.00 79 1009.6
20260509080001 37 174 0.0 0.0 0.00 0.04 0.00 78 1009.4
20260509074600 38 174 0.0 0.0 0.00 0.04 0.00 77 1009.3
20260509073211 38 174 0.0 0.0 0.00 0.04 0.00 77 1009.2
20260509071558 38 173 0.0 0.0 0.00 0.04 0.00 77 1009.3
20260509070100 38 202 0.0 0.0 0.00 0.04 0.00 78 1009.3
20260509064555 38 179 0.0 0.0 0.00 0.04 0.00 79 1009.1
20260509063054 38 176 0.0 0.0 0.00 0.04 0.00 78 1009.0
20260509061556 39 196 0.0 0.0 0.00 0.04 0.00 79 1008.9
20260509060051 38 196 0.0 0.0 0.00 0.04 0.00 80 1008.7
20260509054554 37 197 0.0 0.0 0.00 0.04 0.00 80 1008.6
20260509053051 38 197 0.0 0.0 0.00 0.04 0.00 79 1008.5
20260509051557 38 197 0.0 0.0 0.00 0.04 0.00 79 1008.4
20260509050044 38 197 0.0 0.0 0.00 0.04 0.00 78 1008.3
20260509044541 39 197 0.0 0.0 0.00 0.04 0.00 77 1008.2
20260509043046 40 197 0.0 0.0 0.00 0.04 0.00 77 1008.0
20260509041536 40 197 0.0 0.0 0.00 0.04 0.00 76 1007.8
20260509040033 41 197 0.0 0.0 0.00 0.04 0.04 76 1007.7
20260509034532 41 207 0.0 0.0 0.00 0.04 0.04 76 1007.5
20260509033032 41 207 0.0 0.0 0.00 0.04 0.04 77 1007.6
20260509031533 41 210 0.0 0.0 0.00 0.04 0.04 78 1007.4
20260509030039 41 213 0.0 0.0 0.00 0.04 0.04 79 1007.6
20260509024530 41 201 0.0 0.0 0.00 0.04 0.04 78 1007.4
20260509023028 42 201 0.0 0.0 0.00 0.04 0.04 77 1007.3
20260509021527 42 200 0.0 0.0 0.00 0.04 0.04 77 1007.1
20260509020026 43 200 0.0 0.0 0.00 0.04 0.04 76 1007.0
20260509014526 43 201 0.0 0.0 0.00 0.04 0.04 75 1007.0